Regional Weather Roundup
Issued by NWS

Home | Current Version | Previous Version | Text Only | Print | Product List | Glossary Off
Versions: 1 2 3 4 5 6 7 8 9 10 11 12 13 14 15 16 17 18 19 20 21 22 23 24 25 26 27

000
ASUS45 KTFX 250010
RWRMT
MONTANA REGIONAL WEATHER ROUNDUP
NATIONAL WEATHER SERVICE GREAT FALLS MT
600 PM MDT FRI MAR 24 2017

NOTE: "FAIR" INDICATES FEW OR NO CLOUDS BELOW 12000 FEET WITH NO
SIGNIFICANT WEATHER AND/OR OBSTRUCTIONS TO VISIBILITY.

MTZ001>007-043-250100-
WEST OF THE DIVIDE

CITY           SKY/WX    TMP DP  RH WIND       PRES   REMARKS
KALISPELL      LGT RAIN  43  35  73 CALM      29.81R
MISSOULA       CLOUDY    53  36  52 W20       29.83R
BUTTE          CLOUDY    52  22  30 S23G38    29.84S
MULLAN PASS    SNOW      31  31 100 VRB5      29.81R VSB 1/4
ANACONDA         N/A     55  23  28 S13G20    29.81R
DEER LODGE       N/A     55  23  28 S13G20    29.79R
EUREKA           N/A     45  36  70 S3        29.79R
HAMILTON         N/A     54  34  47 SW7       29.83R
PLAINS           N/A     53  34  48 S7        29.84R
RONAN            N/A     48  32  54 N1        29.88R
$$

MTZ008-052>055-250100-
SOUTHWEST MONTANA

CITY           SKY/WX    TMP DP  RH WIND       PRES   REMARKS
BOZEMAN        CLOUDY    59  21  23 SW9       29.83S
DILLON         CLOUDY    52  20  28 S26G44    29.85F
W YELLOWSTONE  CLOUDY    41  18  38 S22G29    30.02F
ENNIS          MOSUNNY   50  16  25 S30G43    29.95R
THREE FORKS      N/A     56  56 100 S29       29.83F
TWIN BRIDGES     N/A     56  21  25 SE20      29.87S
$$

MTZ009-010-012-014-046-048-049-054-250100-
EAST SLOPES AND CENTRAL MONTANA

CITY           SKY/WX    TMP DP  RH WIND       PRES   REMARKS
CUT BANK       PTSUNNY   53  27  36 W23       29.70S
GREAT FALLS    CLOUDY    62  19  19 S18       29.69F
MALMSTROM AFB  CLOUDY    62  20  19 S25       29.70F
HELENA         CLOUDY    62  21  20 S21G35    29.74F
AUGUSTA        PTSUNNY   57  20  23 W18       29.71S
BOWMANS CRNR   PTSUNNY   59  18  20 SW18G26   29.69S
CHOTEAU          N/A     59  19  21 SW15G23   29.71F
CONRAD           N/A     61  31  32 S10       29.75S
FAIRFIELD      PTSUNNY   61  19  19 S13       29.68F
POWER            N/A     61  18  19 S16       29.69F
RAYNESFORD     PTSUNNY   62  16  16 SW15G22   29.73F
$$

MTZ011-013-016-021-045-047-050-051-250100-
NORTH CENTRAL MONTANA

CITY           SKY/WX    TMP DP  RH WIND       PRES   REMARKS
HAVRE          PTSUNNY   66  23  19 S10       29.70F
LEWISTOWN      SUNNY     62  24  23 S17       29.77F
N BAR RANCH      N/A     57  23  26 S21G30    29.83F
CHINOOK          N/A     64  23  20 E10       29.71F
DENTON           N/A     62  22  21 S18G35    29.69F
FORT BENTON      N/A     66  18  15 N8        29.69F
GEYSER           N/A     62  16  17 SW18G25   29.72F
GRASS RANGE      N/A     61  25  24 S18G24    29.75F
STANFORD         N/A     60  20  20 S21G26    29.74F
WINIFRED         N/A     64  20  18 S20       29.74F
$$

MTZ017>020-022>027-061-062-250100-
NORTHEAST MONTANA

CITY           SKY/WX    TMP DP  RH WIND       PRES   REMARKS
GLASGOW        MOSUNNY   62  29  28 S13       29.84F
JORDAN           N/A     63  27  25 S17       29.84F
SIDNEY         SUNNY     61  26  26 S7        29.94F
WOLF POINT     SUNNY     64  26  23 S13       29.88F
MALTA          SUNNY     63  32  31 S12G21    29.77F
PLENTYWOOD       N/A     55  37  50 E16G22    29.92F
POPLAR           N/A     64  28  25 S14       29.89F
SCOBEY           N/A     59  30  33 E13       29.88F
$$

MTZ028>42-056>058-250100-
SOUTHCENTRAL AND SOUTHEAST MONTANA

CITY           SKY/WX    TMP DP  RH WIND       PRES   REMARKS
BAKER          SUNNY     58  31  35 S16G23    29.98F
BILLINGS       MOSUNNY   64  22  20 S16G25    29.82F
LIVINGSTON     SUNNY     57  16  20 SW25G39   29.82F
MILES CITY     SUNNY     63  26  24 S17       29.90F
BIG TIMBER     SUNNY     59  19  21 W17G24    29.85F
EKALAKA          N/A     56  22  26 SE9       29.97F
FORSYTH          N/A     64  28  25 SE17      29.88F
HARLOWTON        N/A     59  18  19 S22G28    29.78F
LAUREL           N/A     64  28  25 S16       29.83F
$$

REGIONAL REPORTS...DAKOTAS

CITY           SKY/WX    TMP DP  RH WIND       PRES   REMARKS
WILLISTON      SUNNY     53  32  44 E16       29.98F
MINOT          CLEAR     37  29  72 E16       30.12F WCI  28
DICKINSON      MOSUNNY   54  33  45 SE18      30.00F
BEACH            N/A    N/A N/A N/A MISG        N/A
TIOGA            N/A     43  39  87 SE16      30.04S
WATFORD CITY     N/A     54  37  54 SE18G26   29.98F
BISMARCK       CLEAR     43  34  70 E14       30.14F
GRAND FORKS    MOCLDY    35  29  78 NE7       30.22S WCI  29
FARGO          CLEAR     38  32  79 N14       30.19R WCI  30
BUFFALO SD       N/A     59  33  37 S16       29.94F
RAPID CITY     SUNNY     59  30  33 SE12      30.05S
$$

REGIONAL REPORTS...WYOMING/IDAHO/WASHINGTON

CITY           SKY/WX    TMP DP  RH WIND       PRES   REMARKS
GILLETTE       SUNNY     58  30  34 S16       29.98F
SHERIDAN       SUNNY     62  28  27 SE12      29.89F
BUFFALO WY     SUNNY     59  28  30 S22       29.93F
CODY           CLOUDY    61  18  18 SW8       29.92F
YELLOWSTONE LA   N/A     40  16  37 VRB3      30.06F
IDAHO FALLS    CLOUDY    55  26  32 SW20G25   30.01F
SALMON         CLOUDY    54  28  37 SW21G36   29.88R
BOISE          LGT RAIN  49  43  80 E13       29.98S
SPOKANE        LGT RAIN  43  39  86 SW18      29.83R FOG
$$

REGIONAL REPORTS...ALBERTA

CITY           SKY/WX    TMP DP  RH WIND       PRES   REMARKS
EDMONTON       CLOUDY    37  30  75 SE10      29.70F WCI  30
CALGARY        CLOUDY    52  21  30 NW13      29.59R
LETHBRIDGE     CLOUDY    54  27  35 SW22G30   29.67S
MEDICINE HAT   CLOUDY    57  25  28 S6        29.69F
WATERTON GATE    N/A     41  30  65 SW24G36     N/A
CARDSTON         N/A     50  27  40 S10G18      N/A
MILK RIVER       N/A     55  27  33 W18G26      N/A
$$

REGIONAL REPORTS...SASKATCHEWAN

CITY           SKY/WX    TMP DP  RH WIND       PRES   REMARKS
SWIFT CURRENT  PTSUNNY   50  32  50 S9        29.78F
REGINA         CLOUDY    37  32  81 SE24G30   29.95F WCI  26
SASKATOON      CLOUDY    43  30  61 E14       29.91F
CYPRESS HILLS    N/A     50  21  32 S12         N/A
VAL MARIE        N/A     59  27  29 S14G21      N/A
ROCKGLEN         N/A     55  27  33 S15G21      N/A
ASSINIBOIA       N/A     36  30  80 E14G22      N/A  WCI  27
$$




USA.gov is the U.S. government's official web portal to all federal, state and local government web resources and services.